Regional Weather Roundup
Issued by NWS

Home | Current Version | Previous Version | Graphics & Text | Print | Product List | Glossary On
Versions: 1 2 3 4 5 6 7 8 9 10 11 12 13 14 15 16 17 18 19 20 21 22 23 24 25 26 27
000
ASUS45 KSLC 050010
RWRUT

UTAH REGIONAL WEATHER ROUNDUP
NATIONAL WEATHER SERVICE SALT LAKE CITY UT
500 PM MST SUN DEC 04 2016

UTZ001>011-023>025-050100-

NORTHERN UTAH

CITY           SKY/WX    TMP DP  RH WIND       PRES   REMARKS
BRIGHAM CITY     N/A     40  19  43 SW7       29.90F
HILL AFB       PTCLDY    37  20  50 S17       29.91F WCI  27
LOGAN          CLOUDY   N/A N/A N/A VRB3      29.88F
OGDEN          CLOUDY    39  20  46 SE9       29.91F WCI  33
SALT LAKE CITY CLOUDY    41  22  46 SE14      29.92F
TOOELE VALLEY  CLOUDY    41  27  56 W3G10     29.92F
WENDOVER       CLOUDY    37  16  41 CALM      29.91F
HEBER CITY     CLOUDY    32  21  64 CALM      29.95F
WEST JORDAN    CLOUDY    40  25  54 S16       29.94F WCI  32

$$

UTZ011>015-024>027-050100-

CENTRAL/NORTHEAST UTAH

CITY           SKY/WX    TMP DP  RH WIND       PRES   REMARKS
PROVO AIRPORT  CLOUDY    33  26  75 N6        29.99F WCI  28
MOAB/CANYONLAN CLEAR     39  15  37 CALM      30.04F
DELTA          MOCLDY    41  14  33 E5        29.97F
PRICE          CLEAR     32  12  43 CALM      30.04F
RICHFIELD      PTCLDY    37  21  52 N7        30.01F WCI  32
ROOSEVELT      CLOUDY    34  16  47 CALM      30.00F
VERNAL         CLOUDY    31  15  52 CALM      29.98F

$$

UTZ013>016-019>022-027-050100-

SOUTHERN UTAH

CITY           SKY/WX    TMP DP  RH WIND       PRES   REMARKS
BRYCE CANYON   CLEAR     37  12  35 CALM      30.07F
CEDAR CITY     CLEAR     44  13  28 SW10      30.01F
MILFORD        PTCLDY    49  15  25 S16       29.97F
ST GEORGE      CLOUDY    52  18  25 SW3       30.06F
HANKSVILLE     CLEAR     37  14  38 N6        30.07F WCI  33
KANAB          CLEAR     46  12  25 S3        30.10F
BLANDING       CLEAR     35  12  39 S3        30.16S

$$

REGIONAL REPORTS     COLORADO/ARIZONA

CITY           SKY/WX    TMP DP  RH WIND       PRES   REMARKS
CRAIG, CO      CLOUDY    30  14  51 SE8       29.96F WCI  22
GRAND JUNCTION CLOUDY    35  18  49 CALM      30.06F
RIFLE, CO      CLOUDY    36  15  42 CALM      30.05F
MONTROSE, CO   CLEAR     34  15  46 CALM      30.08F
CORTEZ, CO     CLOUDY    35  20  54 CALM      30.09F
COLORADO CITY    N/A     50  14  23 CALM      30.08F
PAGE, AZ       CLEAR     45  13  27 N3        30.06F
GRAND CANYON   CLEAR     42  18  37 CALM      30.10F
KINGMAN, AZ    CLEAR     60   4  10 CALM      30.02F
FLAGSTAFF, AZ  CLEAR     44  11  26 CALM      30.09S

$$

REGIONAL REPORTS    NEVADA/IDAHO/WYOMING

CITY           SKY/WX    TMP DP  RH WIND       PRES   REMARKS
LAS VEGAS, NV  MOCLDY    59  11  15 N6        30.02F
ELY, NY        PTCLDY    42  17  36 NW3       30.00F
ELKO, NV       CLOUDY    40  22  48 S6        29.93F
POCATELLO, ID  CLOUDY    36  29  75 S24G32    29.77F WCI  24
BURLEY, ID     CLOUDY    45  27  49 SW28G41   29.77F
FORT BRIDGER,  CLOUDY    35  20  52 W17       29.90S WCI  25
EVANSTON, WY   CLOUDY    34  18  52 SW20G25   29.90F WCI  23
ROCK SPRINGS,  CLOUDY    35  18  49 W12       29.85F WCI  27
KEMMERER, WY     N/A     32  19  59 SW23G36   29.86F WCI  19

$$




USA.gov is the U.S. government's official web portal to all federal, state and local government web resources and services.